Weather in Aleksandrovka

Russia / Altai Republic     51°44′00″N   86°06′59″E
temp.,
°C
wind,
m/s
gust,
m/s
humid.,
%
clouds,
%
prec.,
mm/h
press.,
hPa
HPBL,
m
15 april, thu
thu1501:00+1s379797 1.3 1030178
04:000s2595100 0.0 102974
07:00−1s239593 0.0 103053
10:00+6ssw23755 0.0 1027373
13:00+10wnw125739 0.0 10251143
16:00+9nnw316918 0.0 1024761
19:00+6n228445 0.0 1025231
22:00+2sse119784 0.0 102610
16 april, fri
fri1601:00+1s219732 0.0 102616
04:00+1s229713 0.0 102538
07:00+1s24955 0.0 102563
10:00+8ssw23714 0.0 1022370
13:00+12wsw12535 0.0 10201226
16:00+13nw235111 0.0 10181414
19:00+10n23752 0.0 1018123
22:00+6sse11902 0.0 101910
17 april, sat
sat1701:00+5s229027 0.0 101825
04:00+5s2390100 0.0 101759
07:00+5ssw2389100 0.0 101667
10:00+8wnw1175100 0.0 1015340
13:00+10nnw2269100 0.0 1014784
16:00+8nnw237898 0.5 1014460
19:00+6nnw2284100 0.6 1015332
22:00+3nw129697 0.1 1017202
18 april, sun
sun1801:00+3nnw2295100 0.1 1018385
04:00+2n2299100 0.6 1019270
07:00+1ne119694 0.6 1020141
10:00+3se008394 0.1 1019467
13:00+5n2275100 0.1 1018859
16:00+6nnw1274100 0.1 1017814
19:00+6ese117394 0.1 1015342
22:00+3sse228837 0.0 101539
19 april, mon
mon1901:00+3s3884100 0.0 1011145
04:00+5s41468100 0.0 1007312
07:00+6ssw6166877 0.0 1005760
10:00+12ssw819525 0.0 10022128
13:00+14wsw61848100 0.4 10012846
16:00−1nnw4790100 1.1 1011594
19:00−3nne2393100 7.0 1015410
22:00−4nne1296100 4.6 1018266